Regional Weather Roundup
Issued by NWS

Home | Current Version | Previous Version | Graphics & Text | Print | Product List | Glossary On
Versions: 1 2 3 4 5 6 7 8 9 10 11 12 13 14 15 16 17 18 19 20 21 22 23 24 25 26 27 28 29 30 31 32 33 34 35 36 37 38 39 40 41 42 43 44 45 46 47 48 49 50
000
ASUS43 KDTX 250201
RWRMI
MICHIGAN HOURLY REGIONAL WEATHER ROUNDUP
NATIONAL WEATHER SERVICE DETROIT/PONTIAC MI
1000 PM EDT SUN MAY 24 2015

NOTE: "FAIR" INDICATES FEW OR NO CLOUDS BELOW 12,000 FEET WITH NO
SIGNIFICANT WEATHER AND/OR OBSTRUCTION TO VISIBILITY.

MIZ047>049-052>055-059>063-066>070-074>076-081>083-250300-
SOUTHEAST LOWER MICHIGAN

CITY           SKY/WX    TMP DP  RH WIND       PRES   REMARKS
ADRIAN         CLOUDY    68  53  58 SE5       30.09R
ALMA           LGT RAIN  61  58  90 E6        30.08S
ANN ARBOR      MOCLDY    69  51  52 SE7       30.10R
BAD AXE        LGT RAIN  59  56  88 E3        30.12F
CARO           LGT RAIN  63  57  81 NE5       30.09F
DETROIT CITY   CLOUDY    68  48  48 SE8       30.10F
DETROIT        MOCLDY    72  48  42 E6        30.10S
FLINT          CLOUDY    69  54  58 E7        30.08F
GROSSE ILE     MOCLDY    68  46  45 E6        30.08S
HILLSDALE      PTCLDY    74  53  47 SE6       30.07S
HOWELL         MOCLDY    70  49  47 SE9       30.07S

CITY           SKY/WX    TMP DP  RH WIND       PRES   REMARKS
JACKSON        MOCLDY    70  51  51 SE10      30.07S
LAMBERTVILLE   MOCLDY    64  54  68 CALM      30.10R
LANSING        CLOUDY    71  54  54 SE8       30.06F
LAPEER         CLOUDY    66  52  60 E3        30.10S
MASON          CLOUDY    69  51  54 SE6       30.07S
MONROE         MOCLDY    64  54  68 E7        30.08S
MT. CLEMENS    CLOUDY    68  51  55 SE8       30.08F
PONTIAC        CLOUDY    70  49  47 SE8       30.08F
PORT HOPE        N/A     61  58  90 CALM      30.12R
PORT HURON     LGT RAIN  66  54  63 CALM      30.12R
TRI CITIES     LGT RAIN  64  56  75 NE8       30.10F
MIDLAND        DRIZZLE   62  58  87 E5        30.08F
TROY           CLOUDY    73  44  36 SE5       30.11S
SAGINAW HB     DRIZZLE   63  59  88 NE8       30.08F
$$
MIZ043>046-050>051-056>058-064>065-071>073-077>080-250300-
SOUTHWEST LOWER MICHIGAN

CITY           SKY/WX    TMP DP  RH WIND       PRES   REMARKS
BATTLE CREEK   MOCLDY    73  56  54 SE8       30.04S
BENTON HARBOR  PTCLDY    75  55  49 SE7       29.97S
BIG RAPIDS     LGT RAIN  60  55  86 SE10      30.04F
COLDWATER      PTCLDY    72  53  51 S5        30.04S
FREMONT        CLOUDY    60  57  90 E9        30.00F
HOLLAND        CLOUDY    68  58  70 E6        29.99F
GRAND RAPIDS   CLOUDY    67  56  67 E10       30.02F
IONIA          DRIZZLE   64  56  73 E9        30.04S
KALAMAZOO      CLOUDY    73  57  57 SE3       30.02S
LUDINGTON      LGT RAIN  61  58  91 E12G17    30.00F
MARSHALL       CLOUDY    71  56  59 E5        30.04S
MOUNT PLEASANT LGT RAIN  60  58  92 CALM      30.08S
MUSKEGON       LGT RAIN  63  57  81 E8        29.99F
SOUTH HAVEN    CLOUDY    68  59  72 SE5       29.97F
$$
MIZ016>042-250300-
NORTHERN LOWER MICHIGAN

CITY           SKY/WX    TMP DP  RH WIND       PRES   REMARKS
ALPENA         LGT RAIN  65  52  62 SW8       30.10S
BEAVER ISLAND  DRIZZLE   53  49  86 W6        30.07S
BELLAIRE       LGT RAIN  59  56  92 CALM      30.08S
CADILLAC       RAIN      58  56  94 SE5       30.08S
CHARLEVOIX     LGT RAIN  52  49  90 CALM      30.11R
FRANKFORT      RAIN      61  55  79 E7        30.03F
GAYLORD        LGT RAIN  58  57  97 S6        30.10S
HARBOR SPRINGS RAIN      51  47  86 CALM      30.09R
HOUGHTON LAKE  LGT RAIN  58  56  93 E3        30.10F
MANISTEE       CLOUDY    59  55  88 E10       30.02F
OSCODA         LGT RAIN  61  56  84 CALM      30.11S
PELLSTON       LGT RAIN  60  50  69 CALM      30.09R
ROGERS CITY    CLOUDY    61  46  59 S3        30.09S
TRAVERSE CITY  LGT RAIN  60  57  89 VRB6      30.06F
$$
MIZ007>008-015-250300-
EASTERN UPPER MICHIGAN

CITY           SKY/WX    TMP DP  RH WIND       PRES   REMARKS
KINROSS        CLOUDY    61  50  67 SW5       30.06F
MACKINAC ISLAN CLOUDY    54  47  78 W6        30.07F
NEWBERRY       CLOUDY    58  50  72 SW13      30.04S
S. S. MARIE    CLOUDY    61  48  62 S6        30.05S
$$
MIZ004>006-011>014-085-250300-
CENTRAL UPPER MICHIGAN

CITY           SKY/WX    TMP DP  RH WIND       PRES   REMARKS
MANISTIQUE     CLOUDY    53  49  88 SW7       30.05S
ESCANABA       CLOUDY    55  52  88 S6        30.02F
MENOMINEE      CLOUDY    55  52  88 SE6       30.01F
SAWYER-GWINN   CLEAR     63  52  67 SW9       30.01S
$$
MIZ001>003-009>011-084-250300-
WESTERN UPPER MICHIGAN

CITY           SKY/WX    TMP DP  RH WIND       PRES   REMARKS
IRON MOUNTAIN  LGT RAIN  58  56  93 SE9       30.00F FOG
HOUGHTON       CLOUDY    61  42  49 E8        29.96S
COPPER HARBOR    N/A     59  41  51 VRB5      29.95S
IRONWOOD       CLOUDY    61  54  77 S6        29.95S
$$

ABBREVIATIONS USED IN REMARKS
   TC - TEMPERATURE IN CELSIUS
  WCI - WIND CHILL INDEX
   HX - HEAT INDEX
  VSB - VISIBILITY



USA.gov is the U.S. government's official web portal to all federal, state and local government web resources and services.